Regional Weather Roundup
Issued by NWS Sterling, VA

Home | Current Version | Previous Version | Graphics & Text | Print | Product List | Glossary On
Versions: 1 2 3 4 5 6 7 8 9 10 11 12 13 14 15 16 17 18 19 20 21 22 23 24 25 26 27
000
ASUS41 KLWX 222211
RWRLWX

REGIONAL WEATHER ROUNDUP
NATIONAL WEATHER SERVICE BALTIMORE MD/WASHINGTON DC
600 PM EDT THU JUN 22 2017

Note: "FAIR" indicates few or no clouds below 12,000 feet
with no significant weather and/or obstructions to visibility.
 TC=TEMPERATURE CELSIUS

 * =Non NWS site. Station does not report precipitation (e.g. rain,
    snow, etc.), thunder, or fog.

DCZ001-MDZ009-015-VAZ040>042-051-053>054-222300-
WASHINGTON METRO

CITY           SKY/WX    TMP DP  RH WIND       PRES   REMARKS
WASHINGTON NAT CLOUDY    87  71  58 S8        29.95F HX  93
DULLES         CLOUDY    84  71  65 SW7       29.95F
ANDREWS AFB    CLOUDY    85  70  62 SW12      29.95F
FT BELVOIR     CLOUDY    86  71  60 S5        29.95F HX  91
QUANTICO       CLOUDY    87  74  64 SW6       29.96F HX  95
COLLEGE PARK*  CLOUDY    85  68  55 SW5       29.94F
LEESBURG*      CLOUDY    86  73  66 SW6       29.97F HX  93
MANASSAS*      CLOUDY    85  74  69 S5        29.96F HX  92
GAITHERSBURG*  PTSUNNY   85  70  60 SW6       29.97F

$$

MDZ006>007-011-014-222300-
BALTIMORE METRO

CITY           SKY/WX    TMP DP  RH WIND       PRES   REMARKS
BWI AIRPORT    CLOUDY    86  71  60 SW6       29.94F HX  91
MD SCIENCE CTR   N/A     88  69  53 MISG      29.94S HX  92
MARTIN STATE   SUNNY     86  75  70 SE8       29.94F HX  95
ANNAPOLIS      CLOUDY    85  72  65 SW7       29.94F HX  91
FORT MEADE*    CLOUDY    81  73  78 CALM      29.97F

$$

MDZ012-015-019>023-222300-
MARYLAND EASTERN SHORE

CITY           SKY/WX    TMP DP  RH WIND       PRES   REMARKS
OCEAN CITY     PTSUNNY   84  70  62 W7        29.97F
SALISBURY      CLOUDY    84  74  71 SW6       29.96F HX  91
BAY BRIDGE AP* CLOUDY    86  72  62 SW3       29.94F HX  92
CAMBRIDGE*     SUNNY     84  73  70 S5        29.95F HX  91
EASTON*        CLOUDY    86  72  62 SW9       29.98F HX  92

$$

MDZ017>025-222300-
SOUTHERN MARYLAND

CITY           SKY/WX    TMP DP  RH WIND       PRES   REMARKS
PATUXENT RIVER CLOUDY    85  73  67 S6        29.95F HX  91
ST INIGOES     CLOUDY    86  75  69 S5        29.96F HX  95
LEONARDTOWN*   CLOUDY    84  72  65 SW6       29.98S

$$

MDZ003>005-222300-
NORTH CENTRAL MARYLAND

CITY           SKY/WX    TMP DP  RH WIND       PRES   REMARKS
FREDERICK*     SUNNY     86  68  54 SW9       29.97F
HAGERSTOWN APT PTSUNNY   87  71  58 S14       29.95S HX  93
WESTMINSTER*   PTSUNNY   86  72  62 SW8       29.97S HX  92

$$

MDZ501>502-222300-
WESTERN MARYLAND

CITY           SKY/WX    TMP DP  RH WIND       PRES   REMARKS
OAKLAND*       NOT AVBL
CUMBERLAND*    CLOUDY    86  70  58 SW6       30.00S HX  90

$$

VAZ025>031-222300-
SHENANDOAH VALLEY

CITY           SKY/WX    TMP DP  RH WIND       PRES   REMARKS
WINCHESTER*    CLOUDY    82  70  65 S6        29.97S
FRONT ROYAL*   CLOUDY    82  72  69 S3        29.96F
LURAY*         CLOUDY    82  72  69 S5        29.98F
NEW MARKET*    CLOUDY    84  68  58 S5        29.96F
STAUNTON*      CLOUDY    82  69  64 SW8       30.03F
WAYNESBORO*    CLOUDY    80  70  70 S6        30.03F

$$

WVZ021-048>050-054>055-222300-
EASTERN WEST VIRGINIA PANHANDLE

CITY           SKY/WX    TMP DP  RH WIND       PRES   REMARKS
MARTINSBURG    CLOUDY    85  71  63 S7        29.94F HX  90
PETERSBURG*    CLOUDY    83  75  77 CALM      29.97F HX  90

$$

VAZ036>039-050-222300-
CENTRAL FOOTHILLS

CITY           SKY/WX    TMP DP  RH WIND       PRES   REMARKS
CHARLOTTESVILL CLOUDY    84  72  67 SW8       29.98F
CULPEPER*      CLOUDY    85  73  66 SW6       29.97F HX  92
ORANGE*        CLOUDY    82  72  69 S3        29.98F
GORDONSVILLE*  CLOUDY    83  72  69 S7        29.97F
WARRENTON*     CLOUDY    86  69  57 S5        29.97S

$$

VAZ055>057-222300-
NORTH AND CENTRAL PIEDMONT

CITY           SKY/WX    TMP DP  RH WIND       PRES   REMARKS
FREDERICKSBRG* CLOUDY    86  73  63 SW7       29.95F HX  93
STAFFORD*      CLOUDY    84  73  69 CALM      30.00F HX  90

$$

NCZ024-NYZ072-PAZ021-071-VAZ022-071-222300-
OTHER REGIONAL OBSERVATIONS

CITY           SKY/WX    TMP DP  RH WIND       PRES   REMARKS
NEW YORK CITY  SUNNY     80  61  52 S8        29.92F
PHILADELPHIA   CLOUDY    87  67  51 SW12      29.92F HX  90
PITTSBURGH     CLOUDY    83  66  56 SW12G21   29.96R
ROANOKE        CLOUDY    82  64  54 W7        30.05F
RICHMOND       CLOUDY    85  73  67 S12       29.98F HX  91
RALEIGH        CLOUDY    78  71  79 SW8       30.06F

$$

ANZ530>537-222300-
MARINE OBSERVATIONS

STATION/POSITION TIME  TEMP    WIND        PRES
                       AIR SEA DIR/SP/G
                 (UTC) (F)     (DEG/KT/KT) (MB)
THOMAS PT LIGHT  2200   84 78  210/  8/  8   N/A
BALT KEY BRIDGE  2148   85     220/ 11/ 12 1013.3F
COVE POINT       2148   85     230/  6/  8 1014.8F
LEWISETTA        2148   85 78  280/  4/  5 1014.7F
SOLOMONS ISLAND  2148   84 76  220/  5/  6   N/A
PINEY POINT      2148          240/  3/  4   N/A

$$





USA.gov is the U.S. government's official web portal to all federal, state and local government web resources and services.